Newton, KS

8:23 AM CST on December 12, 2017 (GMT -0600)
Newton City County

Weather History for KEWK - January, 2014

Change the Weather History Date:

Monday, January 20, 2014

  Actual Average Record
Temperature  
Mean Temperature 38 °F -  
Max Temperature 53 °F 39 °F 62 °F (1997)
Min Temperature 21 °F 21 °F 5 °F (2001)
Degree Days  
Heating Degree Days 26    
Moisture  
Dew Point 19 °F    
Average Humidity 43    
Maximum Humidity 60    
Minimum Humidity 28    
Precipitation  
Precipitation 0.00 in - - ()
Sea Level Pressure  
Sea Level Pressure 30.06 in    
Wind  
Wind Speed 11 mph (North)    
Max Wind Speed 28 mph    
Max Gust Speed 41 mph    
Visibility 10 miles    
Events      
Averages and records for this station are not official NWS values.
T = Trace of Precipitation, MM = Missing Value Source: NWS Daily Summary

Daily Weather History Graph

Daily Weather History Graph

Search for Another Location

Airport or City:

Trip Planner

Search our weather history database for the weather conditions in past years. The results will help you decide how hot, cold, wet, or windy it might be!

Date:

Astronomy

Jan. 20, 2014 Rise Set
Actual Time 7:41 AM CST 5:38 PM CST
Civil Twilight 7:13 AM CST 6:07 PM CST
Nautical Twilight 6:41 AM CST 6:39 PM CST
Astronomical Twilight 6:09 AM CST 7:10 PM CST
Moon 10:09 PM CST (1/20) 9:46 AM CST (1/20)
Length of Visible Light 10h 53m
Length of Day
9h 56m
Waning Gibbous, 82% of the Moon is Illuminated
Jan 20
Waning Gibbous
Jan 23
Last Quarter
Jan 30
New
Feb 6
First Quarter
Feb 14
Full

Hourly Weather History & Observations

Time (CST) Temp. Windchill Dew Point Humidity Pressure Visibility Wind Dir Wind Speed Gust Speed Precip Events Conditions
12:15 AM 42.8 °F 40.1 °F 21.2 °F 42% 29.88 in 10.0 mi WSW 4.6 mph - N/A   Clear
12:35 AM 42.8 °F 40.1 °F 21.2 °F 42% 29.88 in 10.0 mi WSW 4.6 mph - N/A   Clear
12:55 AM 42.8 °F 41.1 °F 19.4 °F 39% 29.87 in 10.0 mi WSW 3.5 mph - N/A   Clear
1:15 AM 42.8 °F 41.1 °F 19.4 °F 39% 29.87 in 10.0 mi WSW 3.5 mph - N/A   Clear
1:35 AM 39.2 °F 35.9 °F 19.4 °F 45% 29.86 in 10.0 mi West 4.6 mph - N/A   Clear
1:55 AM 39.2 °F 35.9 °F 19.4 °F 45% 29.86 in 10.0 mi West 4.6 mph - N/A   Clear
2:15 AM 35.6 °F 32.8 °F 19.4 °F 52% 29.86 in 10.0 mi South 3.5 mph - N/A   Clear
2:35 AM 35.6 °F 31.7 °F 19.4 °F 52% 29.86 in 10.0 mi SSE 4.6 mph - N/A   Clear
2:55 AM 39.2 °F 35.9 °F 21.2 °F 49% 29.86 in 10.0 mi SE 4.6 mph - N/A   Clear
3:15 AM 35.6 °F - 19.4 °F 52% 29.87 in 10.0 mi Calm Calm - N/A   Clear
3:35 AM 35.6 °F - 19.4 °F 52% 29.88 in 10.0 mi Calm Calm - N/A   Clear
3:55 AM 37.4 °F - 21.2 °F 52% 29.87 in 10.0 mi Calm Calm - N/A   Clear
4:15 AM 37.4 °F 34.9 °F 21.2 °F 52% 29.86 in 10.0 mi West 3.5 mph - N/A   Clear
4:35 AM 33.8 °F 27.7 °F 19.4 °F 56% 29.87 in 10.0 mi NW 6.9 mph - N/A   Clear
4:55 AM 35.6 °F 31.7 °F 19.4 °F 52% 29.86 in 10.0 mi NNW 4.6 mph - N/A   Clear
5:15 AM 35.6 °F 29.9 °F 19.4 °F 52% 29.86 in 10.0 mi North 6.9 mph - N/A   Clear
5:35 AM 33.8 °F 27.7 °F 19.4 °F 56% 29.87 in 10.0 mi North 6.9 mph - N/A   Clear
5:55 AM 33.8 °F 27.0 °F 19.4 °F 56% 29.88 in 10.0 mi North 8.1 mph - N/A   Clear
6:15 AM 35.6 °F 29.2 °F 21.2 °F 56% 29.88 in 10.0 mi NNE 8.1 mph - N/A   Clear
6:35 AM 35.6 °F 29.2 °F 19.4 °F 52% 29.89 in 10.0 mi NNE 8.1 mph - N/A   Clear
6:55 AM 33.8 °F 25.8 °F 21.2 °F 60% 29.90 in 10.0 mi NNE 10.4 mph - N/A   Clear
7:15 AM 35.6 °F 28.0 °F 21.2 °F 56% 29.90 in 10.0 mi NE 10.4 mph - N/A   Clear
7:35 AM 35.6 °F 28.0 °F 21.2 °F 56% 29.92 in 10.0 mi NE 10.4 mph - N/A   Clear
7:55 AM 33.8 °F 25.3 °F 21.2 °F 60% 29.93 in 10.0 mi NNE 11.5 mph - N/A   Clear
8:15 AM 35.6 °F 27.1 °F 21.2 °F 56% 29.95 in 10.0 mi NNE 12.7 mph - N/A   Clear
8:35 AM 37.4 °F 29.3 °F 23.0 °F 56% 29.96 in 10.0 mi NE 12.7 mph 18.4 mph N/A   Clear
8:55 AM 39.2 °F 31.2 °F 23.0 °F 52% 29.97 in 10.0 mi NE 13.8 mph 19.6 mph N/A   Clear
9:15 AM 39.2 °F 31.6 °F 23.0 °F 52% 29.99 in 10.0 mi NE 12.7 mph - N/A   Clear
9:35 AM 42.8 °F 36.6 °F 24.8 °F 49% 30.00 in 10.0 mi NE 11.5 mph - N/A   Clear
9:55 AM 44.6 °F 39.2 °F 24.8 °F 46% 30.02 in 10.0 mi NE 10.4 mph - N/A   Clear
10:15 AM 46.4 °F 40.4 °F 24.8 °F 43% 30.04 in 10.0 mi NNE 13.8 mph 23.0 mph N/A   Clear
10:35 AM 46.4 °F 41.9 °F 24.8 °F 43% 30.05 in 10.0 mi NE 9.2 mph 17.3 mph N/A   Clear
10:55 AM 48.2 °F - 26.6 °F 43% 30.07 in 10.0 mi NNE 15.0 mph 18.4 mph N/A   Clear
11:15 AM 48.2 °F - 26.6 °F 43% 30.09 in 10.0 mi NNE 19.6 mph 25.3 mph N/A   Clear
11:35 AM 48.2 °F - 24.8 °F 40% 30.10 in 10.0 mi NNE 17.3 mph 27.6 mph N/A   Clear
11:55 AM 48.2 °F - 26.6 °F 43% 30.09 in 10.0 mi North 16.1 mph - N/A   Clear
12:15 PM 51.8 °F - 26.6 °F 38% 30.08 in 10.0 mi NNE 15.0 mph - N/A   Clear
12:35 PM 51.8 °F - 24.8 °F 35% 30.08 in 10.0 mi North 17.3 mph - N/A   Clear
12:55 PM 53.6 °F - 23.0 °F 30% 30.07 in 10.0 mi North 21.9 mph 27.6 mph N/A   Clear
1:15 PM 53.6 °F - 23.0 °F 30% 30.07 in 10.0 mi North 23.0 mph 29.9 mph N/A   Clear
1:35 PM 53.6 °F - 23.0 °F 30% 30.07 in 10.0 mi North 25.3 mph 32.2 mph N/A   Clear
1:55 PM 51.8 °F - 23.0 °F 33% 30.08 in 10.0 mi NNW 26.5 mph 29.9 mph N/A   Clear
2:15 PM 53.6 °F - 24.8 °F 33% 30.08 in 10.0 mi North 21.9 mph 27.6 mph N/A   Clear
2:35 PM 53.6 °F - 23.0 °F 30% 30.08 in 10.0 mi North 25.3 mph 33.4 mph N/A   Clear
2:55 PM 51.8 °F - 21.2 °F 30% 30.09 in 10.0 mi North 24.2 mph 28.8 mph N/A   Clear
3:15 PM 50.0 °F - 21.2 °F 32% 30.11 in 10.0 mi NNW 20.7 mph 27.6 mph N/A   Clear
3:35 PM 51.8 °F - 21.2 °F 30% 30.12 in 10.0 mi NNW 19.6 mph 25.3 mph N/A   Clear
3:55 PM 51.8 °F - 19.4 °F 28% 30.12 in 10.0 mi NNW 21.9 mph 28.8 mph N/A   Clear
4:15 PM 51.8 °F - 19.4 °F 28% 30.13 in 10.0 mi North 18.4 mph 27.6 mph N/A   Clear
4:35 PM 51.8 °F - 19.4 °F 28% 30.14 in 10.0 mi NNW 20.7 mph 29.9 mph N/A   Clear
4:55 PM 50.0 °F - 17.6 °F 28% 30.15 in 10.0 mi NNW 25.3 mph 36.8 mph N/A   Clear
5:15 PM 48.2 °F - 17.6 °F 30% 30.16 in 10.0 mi NNW 19.6 mph 26.5 mph N/A   Clear
5:35 PM 48.2 °F - 17.6 °F 30% 30.18 in 10.0 mi NNW 12.7 mph 21.9 mph N/A   Clear
5:55 PM 44.6 °F 39.7 °F 17.6 °F 34% 30.18 in 10.0 mi NNW 9.2 mph - N/A   Clear
6:15 PM 44.6 °F 38.1 °F 17.6 °F 34% 30.20 in 10.0 mi North 13.8 mph - N/A   Clear
6:35 PM 42.8 °F 36.2 °F 17.6 °F 36% 30.20 in 10.0 mi North 12.7 mph - N/A   Clear
6:55 PM 41.0 °F 34.3 °F 17.6 °F 39% 30.21 in 10.0 mi NNW 11.5 mph - N/A   Clear
7:15 PM 39.2 °F 32.0 °F 17.6 °F 42% 30.22 in 10.0 mi NNW 11.5 mph - N/A   Clear
7:35 PM 42.8 °F 34.8 °F 15.8 °F 34% 30.22 in 10.0 mi NNW 17.3 mph 21.9 mph N/A   Clear
7:55 PM 42.8 °F 34.0 °F 15.8 °F 34% 30.23 in 10.0 mi North 20.7 mph 32.2 mph N/A   Clear
8:15 PM 39.2 °F 28.0 °F 19.4 °F 45% 30.26 in 10.0 mi North 26.5 mph 40.3 mph N/A   Clear
8:35 PM 37.4 °F 26.4 °F 17.6 °F 45% 30.27 in 10.0 mi North 23.0 mph 32.2 mph N/A   Clear
8:55 PM 35.6 °F 23.7 °F 15.8 °F 44% 30.29 in 10.0 mi North 24.2 mph 29.9 mph N/A   Clear
9:15 PM 35.6 °F 23.2 °F 14.0 °F 41% 30.29 in 10.0 mi NNW 26.5 mph 41.4 mph N/A   Clear
9:35 PM 33.8 °F 21.3 °F 10.4 °F 38% 30.30 in 10.0 mi NNW 24.2 mph 34.5 mph N/A   Clear
9:55 PM 33.8 °F 22.8 °F 10.4 °F 38% 30.32 in 10.0 mi NNW 18.4 mph 27.6 mph N/A   Clear
10:15 PM 30.2 °F 16.2 °F 10.4 °F 44% 30.33 in 10.0 mi North 25.3 mph 34.5 mph N/A   Clear
10:35 PM 28.4 °F 14.7 °F 6.8 °F 40% 30.35 in 10.0 mi NNW 21.9 mph 35.7 mph N/A   Clear
10:55 PM 26.6 °F 12.4 °F 8.6 °F 47% 30.36 in 10.0 mi North 21.9 mph 29.9 mph N/A   Clear
11:15 PM 24.8 °F 10.3 °F 6.8 °F 46% 30.37 in 10.0 mi North 20.7 mph 31.1 mph N/A   Clear
11:35 PM 24.8 °F 8.4 °F 5.0 °F 43% 30.38 in 10.0 mi North 27.6 mph 36.8 mph N/A   Clear
11:55 PM 21.2 °F 4.5 °F 5.0 °F 50% 30.38 in 10.0 mi North 24.2 mph 36.8 mph N/A   Clear